Ellsworth AFB, SD

12:03 PM MST on December 16, 2017 (GMT -0700)
Ellsworth Air Force Base

Weather History for KRCA - September, 2013

Change the Weather History Date:

Friday, September 20, 2013

  Actual Average Record
Temperature  
Mean Temperature 54 °F -  
Max Temperature 72 °F 69 °F 87 °F (2005)
Min Temperature 38 °F 44 °F 33 °F (1997)
Degree Days  
Heating Degree Days 10    
Growing Degree Days 4 (Base 50)    
Moisture  
Dew Point 37 °F    
Average Humidity 53    
Maximum Humidity 83    
Minimum Humidity 29    
Precipitation  
Precipitation 0.00 in - - ()
Sea Level Pressure  
Sea Level Pressure 30.07 in    
Wind  
Wind Speed 5 mph (SSW)    
Max Wind Speed 8 mph    
Max Gust Speed -    
Visibility 10 miles    
Events      
Averages and records for this station are not official NWS values.
T = Trace of Precipitation, MM = Missing Value Source: NWS Daily Summary

Daily Weather History Graph

Daily Weather History Graph

Search for Another Location

Airport or City:

Trip Planner

Search our weather history database for the weather conditions in past years. The results will help you decide how hot, cold, wet, or windy it might be!

Date:

Astronomy

Sep. 20, 2013 Rise Set
Actual Time 6:37 AM MDT 6:52 PM MDT
Civil Twilight 6:08 AM MDT 7:21 PM MDT
Nautical Twilight 5:34 AM MDT 7:55 PM MDT
Astronomical Twilight 4:59 AM MDT 8:30 PM MDT
Moon 7:22 PM MDT (9/20) 7:59 AM MDT (9/20)
Length of Visible Light 13h 13m
Length of Day
12h 15m
Full, 98% of the Moon is Illuminated
Sep 20
Full
Sep 26
Last Quarter
Oct 4
New
Oct 11
First Quarter
Oct 18
Full

Hourly Weather History & Observations

Time (MDT) Temp. Windchill Dew Point Humidity Pressure Visibility Wind Dir Wind Speed Gust Speed Precip Events Conditions
12:58 AM 41.9 °F 38.2 °F 35.8 °F 79% 30.17 in 10.0 mi West 5.8 mph - N/A   Clear
1:58 AM 40.8 °F 35.6 °F 35.4 °F 81% 30.17 in 10.0 mi West 8.1 mph - N/A   Clear
2:58 AM 41.0 °F 37.1 °F 34.9 °F 79% 30.15 in 10.0 mi Variable 5.8 mph - N/A   Clear
3:58 AM 39.6 °F 36.3 °F 34.5 °F 82% 30.16 in 10.0 mi WNW 4.6 mph - N/A   Clear
4:58 AM 40.8 °F 36.9 °F 34.7 °F 79% 30.16 in 10.0 mi West 5.8 mph - N/A   Clear
5:58 AM 40.3 °F 36.3 °F 33.8 °F 78% 30.16 in 10.0 mi WNW 5.8 mph - N/A   Clear
6:58 AM 38.8 °F 34.6 °F 34.0 °F 83% 30.16 in 10.0 mi WNW 5.8 mph - N/A   Clear
7:58 AM 46.4 °F - 38.5 °F 74% 30.15 in 10.0 mi West 2.3 mph - N/A   Clear
8:58 AM 55.0 °F - 39.4 °F 56% 30.14 in 10.0 mi Calm Calm - N/A   Clear
9:58 AM 59.7 °F - 38.1 °F 45% 30.13 in 10.0 mi NNE 4.6 mph - N/A   Clear
10:58 AM 61.3 °F - 38.3 °F 43% 30.13 in 10.0 mi North 6.9 mph - N/A   Clear
11:58 AM 63.9 °F - 38.3 °F 39% 30.10 in 10.0 mi North 4.6 mph - N/A   Clear
12:58 PM 66.7 °F - 39.2 °F 36% 30.08 in 10.0 mi Variable 2.3 mph - N/A   Clear
1:58 PM 68.4 °F - 38.3 °F 33% 30.04 in 10.0 mi SSE 4.6 mph - N/A   Clear
2:58 PM 70.9 °F - 38.5 °F 31% 30.01 in 10.0 mi SSE 6.9 mph - N/A   Clear
3:58 PM 71.6 °F - 37.8 °F 29% 30.00 in 10.0 mi Calm Calm - N/A   Clear
4:58 PM 71.4 °F - 37.6 °F 29% 29.98 in 10.0 mi SE 8.1 mph - N/A   Clear
5:58 PM 70.2 °F - 37.0 °F 30% 29.98 in 10.0 mi ESE 6.9 mph - N/A   Clear
6:58 PM 65.1 °F - 36.9 °F 35% 29.98 in 10.0 mi ESE 6.9 mph - N/A   Clear
7:58 PM 60.8 °F - 37.0 °F 41% 29.99 in 10.0 mi East 4.6 mph - N/A   Clear
8:58 PM 59.4 °F - 35.8 °F 41% 29.98 in 10.0 mi East 3.5 mph - N/A   Clear
9:58 PM 56.5 °F - 35.2 °F 45% 29.96 in 10.0 mi SW 2.3 mph - N/A   Clear
10:58 PM 54.5 °F - 35.1 °F 48% 29.97 in 10.0 mi South 5.8 mph - N/A   Clear
11:58 PM 51.3 °F - 34.9 °F 54% 29.94 in 10.0 mi South 5.8 mph - N/A   Clear